Regional Weather Roundup
Issued by NWS

Home | Current Version | Previous Version | Text Only | Print | Product List | Glossary On
Versions: 1 2 3 4 5 6 7 8 9 10 11 12 13 14 15 16 17 18 19 20 21 22 23 24 25 26 27
000
ASUS45 KBOI 251810
RWRID

IDAHO REGIONAL WEATHER ROUNDUP
NATIONAL WEATHER SERVICE BOISE ID
1100 AM MST SUN FEB 25 2018

NOTE: "FAIR" INDICATES FEW OR NO CLOUDS BELOW 12000 FEET
WITH NO SIGNIFICANT WEATHER AND/OR OBSTRUCTIONS TO VISIBILITY

IDZ012-014-251900-
SOUTHWEST IDAHO


CITY           SKY/WX    TMP DP  RH WIND       PRES   REMARKS
BOISE          LGT SNOW  28  25  88 SE7       30.15S VSB 1   WCI  21
CALDWELL       FLURRIES  30  25  81 E13       30.15F WCI  20
MOUNTAIN HOME  CLOUDY    28  28 100 E8        30.15F WCI  20
$$

IDZ016-017-251900-
SOUTHCENTRAL IDAHO


CITY           SKY/WX    TMP DP  RH WIND       PRES   REMARKS
BURLEY         MOSUNNY   27  14  58 SW18      30.11F WCI  14
JEROME         PTSUNNY   26  15  63 SW6       30.12F WCI  19
TWIN FALLS     PTSUNNY   28  14  55 S14       30.12S WCI  17
$$

IDZ019>023-251900-
SOUTHEAST IDAHO


CITY           SKY/WX    TMP DP  RH WIND       PRES   REMARKS
IDAHO FALLS    PTSUNNY   23  15  71 SW22G35   30.06S WCI   8
POCATELLO      CLOUDY    27  16  63 SW24      30.12R WCI  12
REXBURG        CLOUDY    20  14  77 SW23G31   30.04R WCI   3
$$

IDZ006-010-011-018-031-032-251900-
CENTRAL IDAHO MOUNTAINS


CITY           SKY/WX    TMP DP  RH WIND       PRES   REMARKS
MCCALL         LGT SNOW  21  16  81 SE12      29.96R WCI   9
HAILEY         MOSUNNY   18   7  62 MISG      30.04S
STANLEY          N/A     20  10  65 SE9       29.93F WCI   9
SALMON         CLOUDY    34  10  37 S20G26    29.91F WCI  23
CHALLIS        PTSUNNY   32   8  36 S14       29.90F WCI  22
$$

IDZ002-004-006-007-026-251900-
NORTHERN IDAHO


CITY           SKY/WX    TMP DP  RH WIND       PRES   REMARKS
LEWISTON       CLOUDY    40  29  64 S23G38    29.84F WCI  30
LOWELL           N/A     32  31  96 VRB3      29.97F
COEUR D`ALENE  LGT RAIN  35  27  72 SW24G30   29.68F WCI  23
MULLAN PASS    HVY SNOW  21  16  81 VRB7G20   29.59F VSB<1/4 WCI  12
$$




USA.gov is the U.S. government's official web portal to all federal, state and local government web resources and services.